Skip Page Navigation
NASA JPL Caltech
NASA Logo - Jet Propulsion Laboratory + View the NASA Portal
+ Near-Earth Object (NEO) Program
Search JPL
JPL Home Earth Solar System Stars & Galaxies Technology
JPL Solar System Dynamics
BODIES ORBITS EPHEMERIDES TOOLS PHYSICAL DATA DISCOVERY FAQ SITE MAP
JPL Small-Body Database Browser
Search: [ help ]  
120460 Hambach (1990 TD7)
Classification: Main-belt Asteroid          SPK-ID: 2120460
Ephemeris | Orbit Diagram | Orbital Elements | Physical Parameters | Discovery Circumstances | Close-Approach Data ]

[ show orbit diagram ]
Orbital Elements at Epoch 2457600.5 (2016-Jul-31.0) TDB
Reference: JPL 6 (heliocentric ecliptic J2000)
 Element Value Uncertainty (1-sigma)   Units 
e .2457395936596675 1.2934e-07  
a 2.372034358740033 1.1978e-08 au
q 1.789131599276487 3.051e-07 au
i 3.394131635490478 9.5659e-06 deg
node 22.55192725446895 0.00010274 deg
peri 357.6597606106717 0.00010375 deg
M 27.54443507998722 1.5895e-05 deg
tp 2457498.403404835624
(2016-Apr-19.90340484)
5.8462e-05 JED
period 1334.381124624338
3.65
1.0108e-05
2.767e-08
d
yr
n .2697879888711323 2.0436e-09 deg/d
Q 2.954937118203578 1.4922e-08 au
  Orbit Determination Parameters
   # obs. used (total)      329  
   data-arc span      8600 days (23.55 yr)  
   first obs. used      1990-10-13  
   last obs. used      2014-04-30  
   planetary ephem.      DE431  
   SB-pert. ephem.      SB431-BIG16  
   condition code      0  
   fit RMS      .5679  
   data source      ORB  
   producer      Otto Matic  
   solution date      2014-Jun-11 02:03:46  

Additional Information
 Earth MOID = .790412 au 
 Jupiter MOID = 2.50135 au 
 T_jup = 3.500 
[ show covariance matrix ]

Ephemeris | Orbit Diagram | Orbital Elements | Physical Parameters | Discovery Circumstances | Close-Approach Data ]

Physical Parameter Table
Parameter Symbol Value Units Sigma Reference Notes
absolute magnitude H 16.3 mag n/a MPO251141  

120460 Hambach           Discovered 1990 Oct. 13 by F. Börngen and L. D. Schmadel at Tautenburg.
The Hambach Festival in 1832 was a great meeting of about 30~000 liberals and democrats, among them many members of a Burschenschaft. They demonstrated and asked firmly for a free and united Germany. The meeting place was the Maxburg castle above the Hambach village near Neustadt on the Weinstrasse.
NOTE: some special characters may not display properly (any characters within {} are an attempt to place the proper accent above a character)
Reference: 20060613/MPCPages.arcLast Updated: 2008-05-22

[ show close-approach data ]
Alternate Designations
 1990 TD7 = 2001 QY199 
Ephemeris | Orbit Diagram | Orbital Elements | Physical Parameters | Discovery Circumstances | Close-Approach Data ]
ABOUT SSD CREDITS/AWARDS PRIVACY/COPYRIGHT GLOSSARY LINKS
FirstGov 2016-May-05 23:48 UT
(server date/time)  
NASA Home Page
Site Manager:   Ryan S. Park
Webmaster  Alan B. Chamberlin